Location: Newark
(16.3678°N, 77.8722°E)
Time: 07:56:31
(UTC+00:00)

S-56A Canister/Altair - Pass Details

Date: 16 December 2019
Orbit: 634 x 2498 km, 38.9° (Epoch: 20 January)

Event Time Altitude Azimuth Distance (km) Brightness Sun altitude
Rises 11:10:57 0° 301° (WNW) 6,026 12.5 13.7°
Reaches altitude 10° 11:15:19 10° 297° (WNW) 4,858 12.2 12.8°
Maximum altitude 11:27:51 51° 227° (SW) 2,171 10.7 10.1°
Drops below altitude 10° 11:36:33 10° 153° (SSE) 3,422 10.9 8.3°
Sets 11:39:07 0° 148° (SSE) 4,168 11.2 7.7°
